[[{"header":{"parameterUnit":"m.s-1","parameterCategory":1,"la1":30.2991,"la2":30.254,"lo1":-89.0895,"lo2":-89.0444,"dy":0.0017,"dx":0.0017,"nx":28,"ny":28,"refTime":"2023-09-21T21:00:00:Z","depth":0,"parameterNumber":2,"parameterNumberName":"U-component_of_WINDS"},"data":[0,0,0,0,0,0,0,0,0,0,0,0,0,0,0,0,0,0,0,0,0,0,0,0,0,0,0,0,0,0,0,0,0,0,0,0,0,0,0,0,0,0,0,0,0,0,0,0,0,0,0,0,0,0,0,0,0,0,-2.4137,-2.4139,0,-2.4311,-2.4313,-2.4315,-2.4263,-2.426,-2.4256,-2.4252,-2.4438,-2.4446,-2.4454,0,0,0,0,0,0,0,0,0,0,0,0,0,-2.3768,-2.3775,-2.4137,-2.4139,-2.4142,-2.4311,-2.4313,-2.4315,-2.4264,-2.4259,-2.4255,-2.4251,-2.4435,-2.4445,-2.4455,0,0,0,0,0,0,0,0,0,0,0,0,0,-2.3934,-2.3778,-2.4137,-2.4136,-2.4138,-2.431,-2.4313,-2.4316,-2.4265,-2.4259,-2.4254,-2.4249,-2.4432,-2.4444,-2.4456,-2.4643,0,0,-2.4495,-2.45,0,0,0,0,0,0,0,0,-2.3925,-2.3948,-2.4134,-2.4136,-2.4138,-2.426,-2.4251,-2.4426,-2.4266,-2.4217,-2.4252,-2.4246,-2.4384,-2.44,-2.4445,-2.4651,-2.4659,-2.4496,-2.4503,-2.4509,-2.4512,0,0,0,0,0,0,0,-2.3913,-2.394,-2.4206,-2.4137,-2.414,-2.4129,-2.4147,-2.4284,-2.4329,-2.4221,-2.4217,-2.4238,-2.4384,-2.4433,-2.4449,-2.4662,-2.4495,-2.4507,-2.4514,-2.4519,-2.5033,-2.5039,0,0,0,0,0,0,-2.3899,-2.3931,-2.4201,-2.4211,-2.4016,-2.414,-2.416,-2.4226,-2.4327,-2.4337,-2.4243,-2.4235,-2.4414,-2.4434,-2.4455,-2.4681,-2.4509,-2.452,-2.4527,-2.5027,-2.5035,-2.5041,0,0,0,0,0,0,-2.3892,-2.3924,-2.4194,-2.407,-2.4104,-2.4153,-2.4228,-2.4233,-2.4281,-2.4344,-2.4352,-2.4284,-2.441,-2.4437,-2.4596,-2.4687,-2.4526,-2.4537,-2.502,-2.503,-2.5038,-2.5135,0,0,0,0,0,0,-2.3881,-2.3921,-2.3991,-2.4072,-2.411,-2.433,-2.4233,-2.424,-2.4302,-2.4294,-2.4385,-2.4394,-2.4408,-2.4578,-2.4609,-2.4701,-2.4547,-2.5012,-2.5024,-2.5035,-2.5124,-2.5146,-2.5166,0,0,0,0,0,-2.3868,-2.4012,-2.3995,-2.4027,-2.4198,-2.4335,-2.4358,-2.4369,-2.4309,-2.4381,-2.4421,-2.4392,-2.4672,-2.4595,-2.4629,-2.4727,-2.5007,-2.5021,-2.5034,-2.5115,-2.5142,-2.5165,0,0,0,0,0,0,-2.3943,-2.4023,-2.4004,-2.4178,-2.425,-2.4326,-2.4417,-2.4397,-2.4489,-2.4478,-2.4489,-2.4511,-2.4674,-2.4716,-2.4629,-2.4914,-2.4831,-2.4852,-2.488,-2.4907,-2.4927,-2.4915,-2.4557,0,0,0,0,0,-2.3979,-2.4082,-2.4147,-2.4295,-2.4331,-2.4368,-2.4428,-2.443,-2.4506,-2.4537,-2.4589,-2.4666,-2.4772,-2.4841,-2.4942,-2.5129,-2.515,-2.5213,-2.5234,-2.5251,-2.527,-2.5375,-2.5405,-2.5087,-2.5087,-2.5087,0,0,-2.4056,-2.4112,-2.4177,-2.4311,-2.4367,-2.4476,-2.4394,-2.4512,-2.4594,-2.4556,-2.4709,-2.475,-2.4837,-2.5012,-2.5092,-2.5052,-2.5362,-2.5269,-2.5282,-2.5292,-2.5392,-2.5422,-2.5449,-2.5096,-2.5095,-2.5093,0,0,-2.4252,-2.4304,-2.4433,-2.4491,-2.4575,-2.4599,-2.463,-2.471,-2.4735,-2.4888,-2.4863,-2.4961,-2.5142,-2.5206,-2.5262,-2.5483,-2.546,-2.5515,-2.5625,-2.5727,-2.5752,-2.5775,-2.5856,-2.5885,-2.5534,-2.5534,-2.5534,0,-2.4338,-2.4498,-2.4503,-2.4623,-2.4684,-2.4652,-2.4786,-2.4842,-2.4956,-2.5001,-2.4954,-2.5181,-2.5237,-2.5428,-2.5481,-2.5527,-2.5566,-2.5506,-2.5747,-2.577,-2.5791,-2.5869,-2.5899,-2.554,-2.554,-2.5539,-2.5538,0,-2.46,-2.4712,-2.4806,-2.4916,-2.4987,-2.5113,-2.514,-2.5212,-2.5208,-2.5238,-2.5396,-2.5462,-2.5576,-2.5621,-2.5619,-2.5813,-2.5786,-2.5743,-2.5661,-2.5828,-2.5901,-2.5931,-2.5549,-2.5547,-2.5545,-2.5544,0,0,-2.4849,-2.4959,-2.4994,-2.5044,-2.5135,-2.5223,-2.5349,-2.5458,-2.5521,-2.5602,-2.571,-2.5863,-2.5825,-2.5889,-2.5894,-2.5983,-2.6157,-2.593,-2.5933,-2.5972,-2.6377,-2.641,-2.6444,-2.6141,-2.6147,-2.6152,-2.6371,0,-2.5054,-2.5273,-2.5281,-2.5482,-2.5587,-2.5558,-2.5669,-2.5738,-2.5769,-2.5865,-2.59,-2.601,-2.595,-2.5988,-2.6075,-2.6117,-2.6239,-2.6101,-2.6246,-2.6251,-2.6226,-2.6482,-2.6517,-2.672,-2.6399,-2.6404,-2.6408,0,-2.5323,-2.541,-2.562,-2.5698,-2.5742,-2.584,-2.5942,-2.6033,-2.6113,-2.6129,-2.62,-2.6193,-2.6325,-2.6236,-2.6421,-2.6327,-2.6386,-2.6416,-2.6424,-2.644,-2.634,-2.6507,-2.6785,-2.6817,-2.6452,-2.6449,-2.6446,0,-2.5486,-2.5656,-2.5804,-2.5847,-2.5941,-2.6011,-2.6054,-2.6128,-2.6193,-2.6283,-2.6327,-2.6432,-2.649,-2.6573,-2.6595,-2.6528,-2.678,-2.6693,-2.68,-2.68,-2.6856,-2.6853,-2.715,-2.6891,-2.6891,-2.689,-2.6889,0,-2.5716,-2.5846,-2.5878,-2.597,-2.6116,-2.6126,-2.6271,-2.631,-2.6376,-2.6477,-2.6459,-2.6555,-2.6577,-2.6678,-2.6696,-2.6847,-2.6873,-2.6893,-2.6897,-2.6896,-2.6894,-2.6936,-2.6924,-2.6898,-2.6896,-2.6895,-2.6893,0,-2.5924,-2.595,-2.611,-2.6185,-2.6207,-2.6312,-2.6378,-2.6467,-2.6495,-2.6623,-2.6654,-2.67,-2.6818,-2.6847,-2.6989,-2.7001,-2.7181,-2.717,-2.7153,-2.7154,-2.726,-2.7251,-2.7598,-2.7645,-2.7353,-2.7355,-2.7358,0,-2.6069,-2.6169,-2.6254,-2.6319,-2.6364,-2.6469,-2.6536,-2.655,-2.662,-2.6719,-2.6798,-2.6913,-2.7006,-2.7196,-2.7244,-2.7353,-2.7346,-2.746,-2.7363,-2.736,-2.7351,-2.7346,-2.7357,-2.748,-2.7483,-2.7485,-2.7487,0,-2.6326,-2.6334,-2.6429,-2.6529,-2.6609,-2.6689,-2.6766,-2.6821,-2.6846,-2.6927,-2.7046,-2.7118,-2.7261,-2.7378,-2.7487,-2.7535,-2.7518,-2.7517,-2.7549,-2.755,-2.7537,-2.7548,-2.7206,-2.751,-2.7508,-2.7506,-2.7505,-2.7504,-2.6509,-2.6596,-2.667,-2.6777,-2.6836,-2.6909,-2.6996,-2.7035,-2.7134,-2.725,-2.7253,-2.7384,-2.7463,-2.7608,-2.7662,-2.7766,-2.7732,-2.7777,-2.7788,-2.78,-2.781,-2.7518,-2.7786,-2.7786,-2.7785,-2.7784,-2.7784,0,-2.6766,-2.6812,-2.691,-2.7017,-2.7103,-2.7075,-2.7159,-2.7233,-2.7347,-2.7421,-2.7512,-2.7651,-2.7763,-2.782,-2.7932,-2.8006,-2.8001,-2.8035,-2.8031,-2.8043,-2.7833,-2.7796,-2.8037,-2.8037,-2.8037,-2.8037,-2.8037,-2.8037,-2.691,-2.7058,-2.7075,-2.7252,-2.7298,-2.7423,-2.7474,-2.7542,-2.7601,-2.7755,-2.7848,-2.7883,-2.7952,-2.8069,-2.8172,-2.8186,-2.823,-2.8269,-2.8279,-2.8083,-2.8057,-2.8033,-2.7998,-2.8278,-2.8278,-2.8481,-2.8483,-2.8484]},{"header":{"parameterUnit":"m.s-1","parameterCategory":1,"la1":30.2991,"la2":30.254,"lo1":-89.0895,"lo2":-89.0444,"dy":0.0017,"dx":0.0017,"nx":28,"ny":28,"refTime":"2023-09-21T21:00:00:Z","depth":0,"parameterNumber":3,"parameterNumberName":"V-component_of_WINDS"},"data":[0,0,0,0,0,0,0,0,0,0,0,0,0,0,0,0,0,0,0,0,0,0,0,0,0,0,0,0,0,0,0,0,0,0,0,0,0,0,0,0,0,0,0,0,0,0,0,0,0,0,0,0,0,0,0,0,0,0,-2.2345,-2.2344,0,-2.2266,-2.2265,-2.2264,-2.2197,-2.2196,-2.2196,-2.2195,-2.211,-2.2109,-2.2107,0,0,0,0,0,0,0,0,0,0,0,0,0,-2.2433,-2.2432,-2.2345,-2.2344,-2.2343,-2.2266,-2.2265,-2.2264,-2.2197,-2.2196,-2.2195,-2.2195,-2.2111,-2.2109,-2.2107,0,0,0,0,0,0,0,0,0,0,0,0,0,-2.2379,-2.2431,-2.2345,-2.23,-2.2296,-2.2266,-2.2265,-2.2264,-2.2197,-2.2196,-2.2195,-2.2194,-2.2112,-2.2109,-2.2107,-2.2114,0,0,-2.21,-2.2099,0,0,0,0,0,0,0,0,-2.2382,-2.2375,-2.2308,-2.2303,-2.2298,-2.224,-2.2265,-2.2214,-2.2198,-2.2235,-2.2195,-2.2194,-2.2154,-2.2148,-2.2136,-2.211,-2.2107,-2.21,-2.2098,-2.2097,-2.2096,0,0,0,0,0,0,0,-2.2386,-2.2378,-2.2314,-2.2307,-2.2301,-2.2283,-2.2274,-2.2255,-2.2201,-2.2231,-2.2226,-2.2218,-2.2151,-2.2138,-2.2133,-2.2106,-2.21,-2.2098,-2.2096,-2.2095,-2.2079,-2.208,0,0,0,0,0,0,-2.2397,-2.2382,-2.2316,-2.2311,-2.2338,-2.2282,-2.2272,-2.226,-2.2201,-2.2192,-2.2219,-2.2215,-2.2143,-2.2136,-2.213,-2.2133,-2.2097,-2.2095,-2.2094,-2.2078,-2.2079,-2.208,0,0,0,0,0,0,-2.2399,-2.2392,-2.2319,-2.2345,-2.2335,-2.2282,-2.2269,-2.2259,-2.2246,-2.2192,-2.2182,-2.2216,-2.2142,-2.2133,-2.2118,-2.2129,-2.2094,-2.2092,-2.2077,-2.2079,-2.208,-2.214,0,0,0,0,0,0,-2.2402,-2.2393,-2.2396,-2.2346,-2.2334,-2.2311,-2.2269,-2.2258,-2.2242,-2.2237,-2.2187,-2.2177,-2.214,-2.2122,-2.2116,-2.2125,-2.209,-2.2076,-2.2078,-2.2079,-2.2137,-2.2144,-2.2149,0,0,0,0,0,-2.2405,-2.2416,-2.2397,-2.2389,-2.2337,-2.2311,-2.2304,-2.2263,-2.2244,-2.2246,-2.2211,-2.2179,-2.2129,-2.2121,-2.2114,-2.2122,-2.2075,-2.2077,-2.2079,-2.2134,-2.2142,-2.2149,0,0,0,0,0,0,-2.2469,-2.2409,-2.2387,-2.2382,-2.2352,-2.23,-2.2302,-2.2273,-2.2247,-2.2242,-2.2191,-2.218,-2.217,-2.2145,-2.2137,-2.2125,-2.2098,-2.2098,-2.2142,-2.2149,-2.2155,-2.2161,-2.2088,0,0,0,0,0,-2.2482,-2.2468,-2.2416,-2.2417,-2.2403,-2.2355,-2.2342,-2.2313,-2.2279,-2.2266,-2.223,-2.2198,-2.2175,-2.2161,-2.2137,-2.2133,-2.212,-2.2135,-2.2141,-2.2147,-2.2148,-2.2141,-2.2147,-2.2088,-2.2088,-2.2088,0,0,-2.251,-2.2475,-2.2469,-2.2428,-2.2402,-2.2386,-2.2345,-2.2331,-2.2318,-2.2264,-2.2247,-2.222,-2.218,-2.217,-2.2164,-2.2149,-2.2161,-2.2149,-2.2154,-2.2152,-2.2144,-2.215,-2.2155,-2.2089,-2.2089,-2.2089,0,0,-2.2552,-2.2525,-2.2522,-2.2496,-2.2457,-2.2425,-2.2424,-2.2376,-2.2356,-2.2339,-2.2297,-2.228,-2.2242,-2.2215,-2.2196,-2.2226,-2.2195,-2.222,-2.2251,-2.2246,-2.225,-2.2254,-2.2263,-2.2267,-2.2221,-2.2221,-2.2221,0,-2.2591,-2.2567,-2.2524,-2.2512,-2.2494,-2.2445,-2.244,-2.2417,-2.2371,-2.2359,-2.2343,-2.2293,-2.2263,-2.2245,-2.2252,-2.2239,-2.2235,-2.2225,-2.2253,-2.2257,-2.226,-2.2267,-2.2271,-2.2225,-2.2224,-2.2224,-2.2224,0,-2.2616,-2.26,-2.2602,-2.2559,-2.2542,-2.2534,-2.2487,-2.2474,-2.2446,-2.2415,-2.2397,-2.2359,-2.2325,-2.2319,-2.2291,-2.2296,-2.2288,-2.2264,-2.2234,-2.2269,-2.2275,-2.2278,-2.2229,-2.2228,-2.2227,-2.2226,0,0,-2.2695,-2.2629,-2.263,-2.261,-2.2562,-2.2548,-2.2536,-2.2504,-2.2493,-2.2463,-2.2451,-2.2419,-2.2395,-2.2374,-2.2342,-2.2338,-2.2361,-2.2313,-2.2311,-2.2322,-2.2362,-2.2379,-2.2384,-2.2341,-2.2341,-2.2341,-2.2364,0,-2.2728,-2.2706,-2.2666,-2.2656,-2.2639,-2.2592,-2.2581,-2.255,-2.252,-2.25,-2.2467,-2.2444,-2.2416,-2.2403,-2.2396,-2.236,-2.2368,-2.2358,-2.2326,-2.2325,-2.2336,-2.2387,-2.2406,-2.243,-2.2367,-2.2367,-2.2367,0,-2.2764,-2.2737,-2.2726,-2.2677,-2.2669,-2.2661,-2.2627,-2.2609,-2.2572,-2.255,-2.2526,-2.2491,-2.2474,-2.2449,-2.2423,-2.2417,-2.2401,-2.2381,-2.2381,-2.2375,-2.2348,-2.2381,-2.2437,-2.244,-2.2371,-2.2371,-2.2371,0,-2.2821,-2.2782,-2.2769,-2.2753,-2.2698,-2.2692,-2.2668,-2.263,-2.2613,-2.2583,-2.257,-2.2539,-2.2521,-2.2496,-2.2453,-2.2439,-2.2431,-2.2402,-2.241,-2.2412,-2.241,-2.241,-2.2462,-2.2403,-2.2403,-2.2403,-2.2403,0,-2.2861,-2.2855,-2.2794,-2.2786,-2.2777,-2.2731,-2.2723,-2.2694,-2.266,-2.2644,-2.2601,-2.2587,-2.2532,-2.251,-2.2476,-2.2458,-2.2451,-2.2431,-2.2422,-2.2434,-2.2437,-2.2422,-2.2419,-2.2404,-2.2404,-2.2403,-2.2403,0,-2.2922,-2.2882,-2.2864,-2.2813,-2.28,-2.2796,-2.275,-2.274,-2.2708,-2.2688,-2.268,-2.2629,-2.2601,-2.2556,-2.2515,-2.2492,-2.248,-2.2465,-2.2493,-2.2487,-2.2497,-2.2496,-2.254,-2.2542,-2.2484,-2.2484,-2.2485,0,-2.295,-2.2944,-2.2892,-2.2879,-2.2857,-2.2837,-2.2819,-2.2772,-2.2755,-2.2711,-2.2705,-2.2675,-2.2647,-2.2605,-2.2562,-2.253,-2.2513,-2.2531,-2.2508,-2.252,-2.2511,-2.2511,-2.2509,-2.2536,-2.2537,-2.2537,-2.2538,0,-2.3002,-2.2982,-2.2959,-2.2928,-2.2909,-2.2882,-2.2853,-2.2844,-2.279,-2.2773,-2.2744,-2.2723,-2.2681,-2.265,-2.2612,-2.2584,-2.2551,-2.2546,-2.2545,-2.2557,-2.2573,-2.2562,-2.2505,-2.2545,-2.2544,-2.2543,-2.2543,-2.2543,-2.3046,-2.3039,-2.3001,-2.2975,-2.2949,-2.2922,-2.2909,-2.2875,-2.2852,-2.2815,-2.2788,-2.2761,-2.2721,-2.2666,-2.2641,-2.2617,-2.2602,-2.2603,-2.2602,-2.2603,-2.2607,-2.2578,-2.261,-2.261,-2.2609,-2.2609,-2.2609,0,-2.3095,-2.3068,-2.3046,-2.3006,-2.2986,-2.2959,-2.2924,-2.2909,-2.2886,-2.2852,-2.2826,-2.2793,-2.2762,-2.2717,-2.2682,-2.2672,-2.2656,-2.2664,-2.2664,-2.2657,-2.2623,-2.2625,-2.2678,-2.2678,-2.2678,-2.2678,-2.2678,-2.2678,-2.3118,-2.3102,-2.3078,-2.3048,-2.302,-2.2994,-2.2977,-2.2951,-2.2924,-2.2889,-2.2864,-2.2835,-2.2796,-2.2758,-2.2727,-2.2715,-2.2703,-2.2716,-2.2698,-2.2666,-2.266,-2.2654,-2.2656,-2.2714,-2.2714,-2.2735,-2.2735,-2.2735]}]]